Marathon, FL

7:04 AM EDT on August 17, 2017 (GMT -0400)
Florida Keys Marathon

Weather History for KMTH - June, 2013

Change the Weather History Date:

Monday, June 10, 2013

  Actual Average Record
Temperature  
Mean Temperature 87 °F 85 °F  
Max Temperature 90 °F 90 °F 93 °F (1998)
Min Temperature 83 °F 79 °F 73 °F (2004)
Degree Days  
Heating Degree Days 0 0  
Month to date heating degree days 0 0  
Since 1 June heating degree days 0 0  
Since 1 July heating degree days 36 81  
Cooling Degree Days 22 20  
Month to date cooling degree days 177 195  
Year to date cooling degree days 2007 1738  
Since 1 June cooling degree days 177 195  
Growing Degree Days 36 (Base 50)    
Moisture  
Dew Point 74 °F    
Average Humidity 67    
Maximum Humidity 74    
Minimum Humidity 59    
Precipitation  
Precipitation T in 0.18 in 0.42 in (2005)
Month to date precipitation 8.36 1.60  
Year to date precipitation 28.12 13.54  
Snow  
Snow 0.00 in - - ()
Month to date snowfall 0.0  
Since 1 June snowfall 0.0  
Since 1 July snowfall 0.0  
Snow Depth 0.00 in    
Sea Level Pressure  
Sea Level Pressure 30.03 in    
Wind  
Wind Speed 8 mph (East)    
Max Wind Speed 14 mph    
Max Gust Speed 18 mph    
Visibility 10 miles    
Events      
T = Trace of Precipitation, MM = Missing Value Source: NWS Daily Summary

Daily Weather History Graph

Daily Weather History Graph

Search for Another Location

Airport or City:

Trip Planner

Search our weather history database for the weather conditions in past years. The results will help you decide how hot, cold, wet, or windy it might be!

Date:

Astronomy

Jun. 10, 2013 Rise Set
Actual Time 6:34 AM EDT 8:13 PM EDT
Civil Twilight 6:08 AM EDT 8:38 PM EDT
Nautical Twilight 5:38 AM EDT 9:09 PM EDT
Astronomical Twilight 5:05 AM EDT 9:41 PM EDT
Moon 8:13 AM EDT (6/10) 9:49 PM EDT (6/10)
Length of Visible Light 14h 29m
Length of Day
13h 38m
Waxing Crescent, 4% of the Moon is Illuminated
Jun 10
Waxing Crescent
Jun 16
First Quarter
Jun 23
Full
Jun 30
Last Quarter
Jul 8
New

Hourly Weather History & Observations

Time (EDT) Temp. Heat Index Dew Point Humidity Pressure Visibility Wind Dir Wind Speed Gust Speed Precip Events Conditions
12:53 AM 84.0 °F 90.2 °F 73.0 °F 69% 30.06 in 10.0 mi ESE 8.1 mph - N/A   Clear
1:53 AM 84.0 °F 90.2 °F 73.0 °F 69% 30.04 in 10.0 mi ESE 8.1 mph - N/A   Partly Cloudy
2:53 AM 84.0 °F 90.2 °F 73.0 °F 69% 30.04 in 10.0 mi East 5.8 mph - N/A   Scattered Clouds
3:53 AM 84.0 °F 91.2 °F 73.9 °F 72% 30.03 in 10.0 mi ESE 8.1 mph - N/A   Partly Cloudy
4:27 AM 84.2 °F 90.9 °F 73.4 °F 70% 30.02 in 10.0 mi East 8.1 mph - N/A   Mostly Cloudy
4:37 AM 82.4 °F 88.2 °F 73.4 °F 74% 30.02 in 10.0 mi East 9.2 mph 16.1 mph N/A   Scattered Clouds
4:53 AM 82.9 °F 88.8 °F 73.0 °F 72% 30.02 in 10.0 mi ESE 8.1 mph 16.1 mph N/A   Partly Cloudy
5:53 AM 82.9 °F 89.4 °F 73.9 °F 74% 30.03 in 10.0 mi ESE 8.1 mph - N/A   Clear
6:53 AM 84.0 °F 91.2 °F 73.9 °F 72% 30.04 in 10.0 mi East 5.8 mph - N/A   Scattered Clouds
7:53 AM 84.9 °F 92.1 °F 73.9 °F 69% 30.05 in 10.0 mi Variable 4.6 mph - N/A   Partly Cloudy
8:53 AM 87.1 °F 95.4 °F 73.9 °F 65% 30.06 in 10.0 mi Variable 4.6 mph - N/A   Clear
9:53 AM 84.0 °F 89.6 °F 72.0 °F 67% 30.06 in 10.0 mi East 4.6 mph - 0.00 in   Partly Cloudy
10:53 AM 88.0 °F 97.5 °F 75.0 °F 65% 30.07 in 10.0 mi East 6.9 mph - 0.00 in   Scattered Clouds
11:53 AM 89.1 °F 99.1 °F 75.0 °F 63% 30.06 in 10.0 mi East 9.2 mph - N/A   Partly Cloudy
12:53 PM 89.1 °F 98.0 °F 73.9 °F 61% 30.05 in 10.0 mi East 8.1 mph - N/A   Partly Cloudy
1:53 PM 88.0 °F 96.5 °F 73.9 °F 63% 30.03 in 10.0 mi East 11.5 mph 17.3 mph N/A   Clear
2:53 PM 89.1 °F 98.0 °F 73.9 °F 61% 30.02 in 10.0 mi East 11.5 mph 16.1 mph N/A   Scattered Clouds
3:53 PM 90.0 °F 99.0 °F 73.9 °F 59% 30.01 in 10.0 mi East 9.2 mph - N/A   Partly Cloudy
4:53 PM 89.1 °F 98.0 °F 73.9 °F 61% 30.00 in 10.0 mi East 9.2 mph - N/A   Clear
5:53 PM 88.0 °F 95.6 °F 73.0 °F 61% 29.99 in 10.0 mi East 9.2 mph - N/A   Partly Cloudy
6:53 PM 87.1 °F 95.4 °F 73.9 °F 65% 29.98 in 10.0 mi East 11.5 mph - N/A   Partly Cloudy
7:53 PM 86.0 °F 93.8 °F 73.9 °F 67% 30.01 in 10.0 mi East 8.1 mph - N/A   Partly Cloudy
8:53 PM 86.0 °F 93.8 °F 73.9 °F 67% 30.04 in 10.0 mi ENE 9.2 mph - N/A   Clear
9:53 PM 84.9 °F 92.1 °F 73.9 °F 69% 30.05 in 10.0 mi ENE 8.1 mph - N/A   Clear
10:53 PM 84.9 °F 93.3 °F 75.0 °F 72% 30.05 in 10.0 mi ENE 10.4 mph - N/A   Clear
11:53 PM 84.9 °F 93.3 °F 75.0 °F 72% 30.05 in 10.0 mi ENE 8.1 mph - N/A   Partly Cloudy